カタログに戻る

STARLINK-34071

運用中通信VLEO
NORAD 63910·PAYLOAD·🇺🇸 United States

打ち上げ May 10, 2025 から Cape Canaveral Space Force Station

Loading…

次のパス (今後24時間)

TLE

最新Source: CelesTrak SupGP

元期: Sep 14, 2026, 22:50 UTC

1 63910C 25095W   26257.95187500 -.00022258  00000+0 -80617-3 0  2579
2 63910  42.9998 187.5797 0001292 265.8608 340.9039 15.27590802    13

AllMySatでSTARLINK-34071をリアルタイム追跡

Download on the App Store